Meath Environmental Platform

Observations for Trim Market St

Time AQI Temp °C Hum % Pres Pa CO μg/m³ H₂S μg/m³ NO μg/m³ NO₂ μg/m³ O₃ μg/m³ SO₂ μg/m³ PM1 μg/m³ PM2.5 μg/m³ PM10 μg/m³
Wednesday 15 July 2026
02:46 1 17.8 71 53,954 0.12 0 0 7.06 24.38 0 6.41 10.26 15.59
02:45 1 17.8 71 54,025 0.12 0 0 6.17 24.09 0 7.13 11.72 17.45
02:44 1 17.8 71 54,088 0.13 0 0 6.67 23.32 0 7.13 10.75 16.83
02:43 1 17.8 71 54,175 0.12 0 0 5.98 24.8 0 7.84 10.76 14.98
02:42 1 17.8 71 54,269 0.12 0 0 6.78 24.27 0 8.55 10.76 16.84
02:41 1 17.8 71 54,390 0.13 0 0 7.6 22.25 0 7.13 10.77 15.61
02:40 1 17.8 71 54,472 0.12 0 0.52 5.41 23.06 0 6.41 8.84 12.51
02:39 1 17.8 71 54,541 0.13 0 0 6.31 25.71 0 5.7 11.26 16.86
02:38 1 17.8 71 54,640 0.12 0 0 6.92 21.28 0 5.7 8.84 13.76
02:37 1 17.8 71 54,732 0.12 0 0 4.33 29.69 0 8.55 14.18 20.62
02:33 1 17.9 70 54,940 0.11 0 0 5.43 23.35 0 5.7 10.8 16.27
02:32 1 17.9 70 55,015 0.11 0 0.34 7.33 27.67 0 7.84 11.29 16.27
02:31 1 17.9 70 55,091 0.13 0 0 5.94 24.73 0 7.13 11.3 18.78
02:30 1 17.9 70 55,136 0.11 0 0 5.35 24.8 0 6.41 11.3 16.91
02:20 1 17.9 70 55,686 0.12 0 0 5.61 24.49 0 7.84 13.28 18.22
02:19 1 18 70 55,712 0.12 0 0 4.88 24.38 0 3.56 8.91 15.07
02:18 1 18 70 55,729 0.13 0 0 5.99 25.6 0 7.84 11.35 15.71
02:17 1 17.9 70 55,759 0.12 0 0 5.02 24.98 0 6.41 8.91 13.82
02:14 1 18 70 55,860 0.12 0 0 5.2 25.4 0 6.41 9.41 14.46
02:13 1 18 69 55,872 0.13 0 0 5.31 25.92 0 7.13 8.93 13.83